Location: Arcusa
(42.3167°N, 0.0833°W)
Time: 16:38:00
(UTC+00:00)

Okean-O - Pass Details

Date: 25 January 2020
Orbit: 639 x 640 km, 98.2° (Epoch: 21 February)

Event Time Altitude Azimuth Distance (km) Brightness Sun altitude
Rises 06:26:29 0° 19° (NNE) 2,954 6.1 -10.2°
Reaches altitude 10° 06:28:47 10° 26° (NNE) 2,040 5.3 -9.8°
Maximum altitude 06:33:03 45° 99° (E) 880 4.0 -9.1°
Drops below altitude 10° 06:37:16 10° 172° (S) 2,024 5.6 -8.3°
Sets 06:39:32 0° 179° (S) 2,928 6.3 -7.9°
